7 * 24
多渠道服务支持
ONEWEB-0086是英国OneWeb星座的成员,2020年3月21日发射,属于低轨通信卫星。OneWeb星座旨在建设覆盖全球的卫星互联网,单星重约147.5kg,运行在近地轨道,可提供高速低延迟通信服务,覆盖包括偏远地区在内的全球区域,支持应急通信、企业和政府机构联网等多种应用场景。此次发射是OneWeb一期组网的一部分,推动该星座全球网络部署进程,英国政府后续注资助力其完成破产重组与星座建设。
英国
(GB)
| 数据来源 | 国际轨道数据 |
| 星历时间: | 2026-09-11T02:09:34+0800 17小时前 查看轨道信息 |
| 半长轴: | 7595.822km |
| 偏心率: | 0.000226 |
| 轨道倾角: | 87.897° |
| 近地点辐角 | 83.725° |
| 升交点赤经 | 4.053° |
| 平近点角 | 276.413° |
| 近地点: | 1215.968km |
| 远地点: | 1219.402km |
| 周期: | 109.805分钟 |
| 每日圈数: | 13.114165 |